Regional Weather Roundup
Issued by NWS

Home | Current Version | Previous Version | Graphics & Text | Print | Product List | Glossary On
Versions: 1 2 3 4 5 6 7 8 9 10 11 12 13 14 15 16 17 18 19 20 21 22 23 24 25 26 27 28 29 30 31 32 33 34 35 36 37 38 39 40 41 42 43 44 45 46 47 48 49 50
000
ASUS43 KBIS 161459
RWRND

NORTH DAKOTA REGIONAL WEATHER ROUNDUP
NATIONAL WEATHER SERVICE BISMARCK ND
1000 AM CDT TUE SEP 16 2014

NOTE: "FAIR" INDICATES FEW OR NO CLOUDS BELOW 12,000 FEET WITH NO
SIGNIFICANT WEATHER AND/OR OBSTRUCTIONS TO VISIBILITY.


NDZ001>003-009>011-017-161600-
NORTHWEST NORTH DAKOTA

CITY           SKY/WX    TMP DP  RH WIND       PRES   REMARKS
WILLISTON      SUNNY     49  38  65 CALM      30.02F
MINOT          SUNNY     56  42  59 SW12      30.00S
$$

NDZ018>021-031>035-040>046-161600-
SOUTHWEST NORTH DAKOTA

CITY           SKY/WX    TMP DP  RH WIND       PRES   REMARKS
BISMARCK       SUNNY     53  43  68 VRB3      30.03F
GARRISON         N/A     54  44  69 S7        30.01F
HETTINGER ARPT SUNNY     51  43  74 CALM      30.03S
$$

NDZ004>008-012>016-024-026-027-054-161600-
NORTHEAST NORTH DAKOTA

CITY           SKY/WX    TMP DP  RH WIND       PRES   REMARKS
GRAND FORKS    MOSUNNY   58  43  57 SW8       30.02F
GRND FRKS AFB  SUNNY     60  43  53 W8        30.02F
DEVILS LAKE    SUNNY     57  39  51 W13       30.02S
$$

NDZ022-023-025-028>030-036>039-047>053-161600-
SOUTHEAST NORTH DAKOTA

CITY           SKY/WX    TMP DP  RH WIND       PRES   REMARKS
FARGO          SUNNY     56  40  55 SW10      30.07F
$$




USA.gov is the U.S. government's official web portal to all federal, state and local government web resources and services.